Hourly Data Report for October 12, 2004

TORONTO CITY
ONTARIO

43°40'00.000" N
79°24'00.000" W
112.50 m
6158355
71508
XTO

Download Data

Hourly Data (October 2004)
Hourly Data Report for October 12, 2004
TIME
LST
Temp Definition
°C
Dew Point Definition
°C
Rel Hum Definition
%
Precip. Amount Definition
mm

Wind Dir Definition
10's deg

Wind Spd Definition
km/h
Visibility Definition
km
Stn Press Definition
kPa
Hmdx Definition


Wind Chill Definition


Weather Definition


00:00 6.0 3.7 85   LegendMM LegendMM LegendMM 100.52     LegendNANA
01:00 5.9 3.7 86   LegendMM LegendMM LegendMM 100.49     LegendNANA
02:00 5.6 3.8 88   LegendMM LegendMM LegendMM 100.44     LegendNANA
03:00 5.6 4.0 89   LegendMM LegendMM LegendMM 100.42     LegendNANA
04:00 5.7 4.1 89   LegendMM LegendMM LegendMM 100.40     LegendNANA
05:00 5.8 3.8 87   LegendMM LegendMM LegendMM 100.35     LegendNANA
06:00 5.4 3.9 90   LegendMM LegendMM LegendMM 100.31     LegendNANA
07:00 5.8 4.2 89   LegendMM LegendMM LegendMM 100.28     LegendNANA
08:00 7.7 5.5 86   LegendMM LegendMM LegendMM 100.26     LegendNANA
09:00 9.8 4.9 72   LegendMM LegendMM LegendMM 100.20     LegendNANA
10:00 11.2 4.4 63   LegendMM LegendMM LegendMM 100.16     LegendNANA
11:00 12.9 4.2 55   LegendMM LegendMM LegendMM 100.11     LegendNANA
12:00 15.5 4.3 47   LegendMM LegendMM LegendMM 100.03     LegendNANA
13:00 15.3 5.6 52   LegendMM LegendMM LegendMM 99.94     LegendNANA
14:00 14.4 4.9 53   LegendMM LegendMM LegendMM 99.87     LegendNANA
15:00 13.0 4.8 57   LegendMM LegendMM LegendMM 99.82     LegendNANA
16:00 13.4 5.2 58   LegendMM LegendMM LegendMM 99.75     LegendNANA
17:00 13.0 5.3 59   LegendMM LegendMM LegendMM 99.71     LegendNANA
18:00 11.3 6.1 70   LegendMM LegendMM LegendMM 99.70     LegendNANA
19:00 12.4 4.4 58   LegendMM LegendMM LegendMM 99.67     LegendNANA
20:00 12.2 2.4 51   LegendMM LegendMM LegendMM 99.62     LegendNANA
21:00 11.6 2.7 54   LegendMM LegendMM LegendMM 99.58     LegendNANA
22:00 10.8 3.9 62   LegendMM LegendMM LegendMM 99.56     LegendNANA
23:00 10.3 4.4 67   LegendMM LegendMM LegendMM 99.54     LegendNANA

Notes on Data Quality.

Legend

  • E = Estimated
  • M = Missing
  • NA = Not Available*
  • [empty] = Indicates an unobserved value
Date modified: